Location: Newark
(34.1333°N, 7.9667°W)
Time: 20:45:41
(UTC+00:00)

Transit 2A - Pass Details

Date: 18 June 2021
Orbit: 598 x 960 km, 66.7° (Epoch: 01 August)

Event Time Altitude Azimuth Distance (km) Brightness Sun altitude
Rises 01:50:31 0° 344° (NNW) 3,080 9.9 -29.6°
Reaches altitude 10° 01:53:00 10° 355° (N) 2,215 9.1 -29.4°
Maximum altitude 01:57:33 32° 58° (ENE) 1,293 7.5 -29.1°
Enters shadow 02:00:53 18° 111° (ESE) 1,910 8.0 -28.8°
Drops below altitude 10° 02:02:30 10° 122° (ESE) 2,426 - -28.7°
Sets 02:05:19 0° 131° (SE) 3,419 - -28.4°
